EW0600 Weather Reports


Display with metric or nautical units.
time (UTC)temp
F
wind
direction
speed
MPH
gust
MPH
rain 1hr
in
rain 24hr
in
rain mn
in
humidity
%
barometer
mb
20260902223106 86 79 1.0 5.0 0.00 0.13 0.13 67 1006.0
20260902222235 87 74 0.0 5.0 0.00 0.13 0.13 68 1005.9
20260902220004 86 129 2.0 6.0 0.00 0.13 0.13 65 1006.1
20260902215002 87 68 1.0 3.0 0.00 0.13 0.13 66 1006.0
20260902214603 87 108 1.0 4.0 0.00 0.13 0.13 64 1006.2
20260902213940 88 262 0.0 6.0 0.00 0.13 0.13 66 1006.2
20260902213002 87 207 1.0 7.0 0.00 0.13 0.13 65 1006.3
20260902211825 87 86 0.0 4.0 0.00 0.13 0.13 64 1006.3
20260902211608 87 32 0.0 4.0 0.00 0.13 0.13 65 1006.4
20260902210004 85 102 2.0 7.0 0.00 0.13 0.13 68 1006.5
20260902205602 86 118 1.0 6.0 0.00 0.13 0.13 67 1006.6
20260902204605 85 74 0.0 7.0 0.00 0.13 0.13 67 1006.6
20260902203507 85 166 1.0 6.0 0.00 0.13 0.13 67 1006.5
20260902203003 84 76 1.0 7.0 0.00 0.13 0.13 68 1006.5
20260902202449 84 59 3.0 6.0 0.00 0.13 0.13 68 1006.4
20260902201607 84 94 4.0 7.0 0.00 0.13 0.13 70 1006.5
20260902201454 84 94 3.0 7.0 0.00 0.13 0.13 71 1006.5
20260902200419 84 79 3.0 7.0 0.00 0.13 0.13 70 1006.7
20260902200003 84 69 3.0 8.0 0.00 0.13 0.13 70 1006.8
20260902195415 84 64 1.0 4.0 0.00 0.13 0.13 69 1006.9
20260902194604 84 59 2.0 5.0 0.00 0.13 0.13 69 1007.2
20260902194432 84 89 1.0 5.0 0.00 0.13 0.13 69 1007.2
20260902193414 84 12 1.0 6.0 0.00 0.13 0.13 70 1007.2
20260902193003 83 103 2.0 7.0 0.00 0.13 0.13 68 1007.3
20260902192404 84 79 1.0 6.0 0.00 0.13 0.13 69 1007.3
20260902191603 83 133 1.0 4.0 0.00 0.13 0.13 69 1007.3
20260902191331 83 139 1.0 6.0 0.00 0.13 0.13 68 1007.3
20260902190259 83 40 2.0 5.0 0.00 0.13 0.13 69 1007.4
20260902185225 83 84 0.0 4.0 0.00 0.13 0.13 69 1007.4
20260902183217 82 96 2.0 7.0 0.00 0.13 0.13 73 1007.7
20260902183102 81 91 3.0 7.0 0.00 0.13 0.13 73 1007.8
20260902182201 81 95 2.0 7.0 0.00 0.13 0.13 73 1007.5
20260902181502 80 67 1.0 8.0 0.00 0.13 0.13 73 1007.8
20260902181141 80 82 3.0 6.0 0.00 0.13 0.13 72 1007.7
20260902180146 80 102 2.0 8.0 0.00 0.13 0.13 73 1007.8
20260902180005 80 134 2.0 9.0 0.00 0.13 0.13 74 1007.9
20260902175152 80 80 3.0 9.0 0.00 0.13 0.13 74 1008.0
20260902174605 79 93 2.0 10.0 0.00 0.13 0.13 75 1008.1
20260902174153 79 101 3.0 9.0 0.00 0.13 0.13 75 1008.0
20260902173154 79 41 2.0 6.0 0.00 0.13 0.13 74 1008.1
20260902173003 79 62 1.0 7.0 0.00 0.13 0.13 75 1008.3
20260902172206 79 132 2.0 6.0 0.00 0.13 0.13 74 1008.4
20260902171609 79 77 2.0 4.0 0.00 0.13 0.13 75 1008.5
20260902170012 79 125 1.0 4.0 0.00 0.13 0.13 74 1008.8
20260902170003 78 125 1.0 5.0 0.00 0.13 0.13 74 1008.9
20260902165009 78 127 1.0 3.0 0.00 0.13 0.13 76 1009.0
20260902164502 78 248 1.0 6.0 0.00 0.13 0.13 77 1009.0
20260902164029 78 245 2.0 5.0 0.00 0.13 0.13 75 1008.9
20260902163104 77 148 1.0 7.0 0.00 0.13 0.13 76 1008.8
20260902161503 77 80 3.0 5.0 0.00 0.13 0.13 77 1008.5
20260902160722 77 96 1.0 5.0 0.00 0.13 0.13 77 1008.4
20260902160117 76 184 0.0 6.0 0.00 0.13 0.13 77 1008.7
20260902155658 77 127 1.0 5.0 0.00 0.13 0.13 78 1008.5
20260902154719 76 81 3.0 6.0 0.00 0.13 0.13 78 1008.5
20260902154502 75 69 4.0 7.0 0.00 0.13 0.13 78 1008.5
20260902153702 76 124 3.0 10.0 0.00 0.13 0.13 79 1008.3
20260902153103 75 82 4.0 11.0 0.00 0.13 0.13 79 1008.2
20260902152650 75 116 4.0 10.0 0.00 0.13 0.13 80 1008.1
20260902151647 74 101 3.0 10.0 0.00 0.13 0.13 82 1008.2
20260902151503 73 87 2.0 11.0 0.00 0.13 0.13 80 1008.2
20260902150703 73 72 6.0 10.0 0.00 0.13 0.13 81 1008.0
20260902150104 73 72 6.0 9.0 0.00 0.13 0.13 81 1008.0
20260902144502 72 75 4.0 7.0 0.00 0.14 0.13 81 1008.2
20260902143449 72 96 3.0 6.0 0.00 0.13 0.13 83 1008.1
20260902143103 71 78 2.0 7.0 0.00 0.14 0.13 83 1008.3
20260902142413 72 70 2.0 5.0 0.00 0.13 0.13 83 1008.3
20260902141501 71 91 3.0 6.0 0.00 0.14 0.13 82 1008.5
20260902141402 71 98 2.0 5.0 0.00 0.14 0.13 82 1008.5
20260902140346 71 107 2.0 8.0 0.00 0.14 0.13 83 1008.6
20260902134503 69 91 5.0 8.0 0.00 0.14 0.13 86 1008.5
20260902134136 69 91 4.0 8.0 0.00 0.14 0.13 85 1008.3
20260902133109 69 71 4.0 8.0 0.00 0.14 0.13 87 1008.4
20260902131502 68 103 2.0 7.0 0.00 0.14 0.13 88 1008.5
20260902130900 68 74 3.0 9.0 0.00 0.14 0.13 88 1008.5
20260902125914 67 124 4.0 9.0 0.00 0.14 0.13 89 1008.5
20260902124854 67 103 3.0 8.0 0.00 0.14 0.13 90 1008.4
20260902124502 66 99 3.0 6.0 0.00 0.14 0.13 90 1008.4
20260902123911 66 104 2.0 5.0 0.00 0.14 0.13 91 1008.4
20260902123111 65 66 1.0 7.0 0.00 0.14 0.13 91 1008.4
20260902121730 65 95 5.0 9.0 0.00 0.14 0.13 92 1008.1
20260902121606 65 87 4.0 10.0 0.00 0.14 0.13 92 1008.2
20260902120751 65 131 5.0 9.0 0.00 0.14 0.13 92 1008.0
20260902120002 65 103 6.0 10.0 0.00 0.14 0.13 92 1008.2
20260902115714 65 98 4.0 9.0 0.00 0.14 0.13 92 1008.2
20260902114704 65 91 4.0 8.0 0.00 0.14 0.13 93 1008.2
20260902114605 65 96 6.0 9.0 0.00 0.14 0.13 93 1008.3
20260902113656 65 120 1.0 7.0 0.00 0.14 0.13 93 1008.5
20260902113002 65 84 1.0 8.0 0.00 0.14 0.13 93 1008.7
20260902112702 66 84 3.0 7.0 0.00 0.14 0.13 93 1008.6
20260902111606 65 99 4.0 7.0 0.00 0.14 0.13 93 1008.3
20260902110503 66 117 3.0 10.0 0.00 0.14 0.13 94 1008.9
20260902110108 65 134 4.0 9.0 0.00 0.14 0.13 94 1009.2
20260902105506 66 111 4.0 10.0 0.00 0.14 0.13 94 1009.2
20260902104502 65 184 2.0 6.0 0.00 0.14 0.13 94 1008.9
20260902103438 66 129 3.0 5.0 0.00 0.14 0.13 94 1008.6
20260902102413 65 119 2.0 6.0 0.00 0.14 0.13 94 1009.4
20260902101502 65 206 3.0 7.0 0.00 0.14 0.13 95 1009.5
20260902101351 65 202 3.0 6.0 0.00 0.14 0.13 95 1009.5
20260902100356 65 218 3.0 5.0 0.00 0.14 0.13 94 1009.4
20260902095338 64 191 2.0 6.0 0.00 0.14 0.13 94 1009.2
20260902094503 64 208 1.0 7.0 0.00 0.14 0.13 94 1008.9
20260902094322 64 167 3.0 6.0 0.00 0.14 0.13 93 1008.8
20260902093335 65 200 2.0 4.0 0.00 0.14 0.13 93 1008.5
20260902093104 64 176 3.0 5.0 0.00 0.14 0.13 93 1008.4
20260902092317 65 153 2.0 9.0 0.00 0.14 0.13 92 1008.3
20260902091243 65 112 5.0 10.0 0.00 0.14 0.13 92 1008.0
20260902090238 65 113 4.0 10.0 0.00 0.14 0.13 92 1008.0
20260902085243 65 174 4.0 10.0 0.00 0.14 0.13 91 1008.4
20260902084503 65 195 4.0 8.0 0.00 0.14 0.13 90 1008.2
20260902084235 65 121 1.0 6.0 0.00 0.14 0.13 90 1007.9
20260902083111 65 141 6.0 9.0 0.00 0.14 0.13 90 1007.7
20260902081504 65 62 5.0 13.0 0.02 0.14 0.13 91 1006.7
20260902080902 66 68 7.0 17.0 0.00 0.14 0.13 91 1007.4
20260902080115 65 69 6.0 18.0 0.05 0.14 0.13 91 1007.5
20260902075859 66 79 8.0 17.0 0.00 0.14 0.13 91 1007.5
20260902074853 66 73 9.0 16.0 0.00 0.14 0.13 91 1008.1
20260902074502 65 71 8.0 16.0 0.08 0.14 0.13 91 1007.8
20260902073914 66 94 8.0 16.0 0.05 0.14 0.13 91 1008.0
20260902073104 65 93 9.0 15.0 0.10 0.14 0.13 90 1007.9
20260902072911 66 97 8.0 14.0 0.05 0.13 0.12 90 1007.7
20260902071838 66 71 8.0 16.0 0.08 0.12 0.12 89 1007.5
20260902071502 65 89 11.0 18.0 0.10 0.12 0.11 89 1007.9
20260902070854 66 79 10.0 16.0 0.16 0.11 0.10 89 1007.5
20260902065842 67 85 9.0 14.0 0.23 0.07 0.07 90 1008.1
20260902064847 68 96 6.0 11.0 0.05 0.06 0.05 91 1009.1
20260902063856 68 125 5.0 11.0 0.10 0.05 0.04 91 1009.8
20260902063008 68 141 4.0 19.0 0.03 0.04 0.03 89 1010.8
20260902062825 69 139 9.0 25.0 0.11 0.03 0.03 89 1011.0
20260902061758 69 213 15.0 25.0 0.00 0.02 0.01 89 1012.0
20260902061614 69 201 17.0 26.0 0.01 0.02 0.01 90 1012.2
20260902060758 69 231 7.0 12.0 0.00 0.02 0.01 91 1011.3
20260902060004 68 229 6.0 8.0 0.01 0.02 0.01 92 1010.1
20260902055738 69 226 2.0 5.0 0.00 0.02 0.01 92 1009.8
20260902054705 70 298 0.0 0.0 0.00 0.01 0.00 91 1008.4
20260902054612 69 298 0.0 4.0 0.00 0.01 0.00 91 1008.3
20260902053722 70 30 1.0 8.0 0.00 0.01 0.00 91 1007.7
20260902053005 69 39 2.0 6.0 0.00 0.01 0.00 92 1007.8
20260902051602 68 67 1.0 6.0 0.00 0.01 0.00 94 1008.4
20260902051520 68 67 3.0 5.0 0.00 0.01 0.00 94 1008.3
20260902050450 68 217 1.0 0.0 0.00 0.01 0.00 94 1009.4
20260902050003 68 235 3.0 6.0 0.00 0.01 0.01 94 1010.0
20260902045451 68 262 3.0 5.0 0.00 0.01 0.01 95 1010.2
20260902044502 67 82 3.0 4.0 0.00 0.01 0.01 95 1009.8
20260902044426 67 82 0.0 3.0 0.00 0.01 0.01 95 1009.7
20260902043415 67 82 0.0 0.0 0.00 0.01 0.01 94 1008.7
20260902043107 67 82 0.0 0.0 0.00 0.01 0.01 93 1008.7
20260902042359 68 82 0.0 0.0 0.00 0.01 0.01 95 1008.3
20260902041503 67 82 0.0 0.0 0.00 0.01 0.01 94 1008.5
20260902040230 68 82 0.0 0.0 0.00 0.01 0.01 95 1008.2
20260902040103 68 82 0.0 0.0 0.00 0.01 0.01 95 1008.3
20260902034503 67 82 1.0 3.0 0.00 0.01 0.01 95 1008.4
20260902034138 68 82 1.0 2.0 0.00 0.01 0.01 96 1008.4
20260902033111 67 82 3.0 3.0 0.00 0.01 0.01 94 1008.7
20260902032019 69 340 0.0 0.0 0.00 0.01 0.01 95 1009.1
20260902031503 68 340 0.0 0.0 0.00 0.01 0.01 95 1009.3
20260902030952 69 340 0.0 0.0 0.00 0.01 0.01 94 1009.2
20260902030103 68 340 0.0 0.0 0.00 0.01 0.01 94 1009.3
20260902030000 69 340 0.0 0.0 0.00 0.01 0.01 94 1009.2
20260902024959 69 340 0.0 0.0 0.00 0.01 0.01 94 1009.0
20260902024503 69 340 0.0 1.0 0.00 0.01 0.01 94 1008.9
20260902024017 70 340 0.0 0.0 0.00 0.01 0.01 94 1008.8
20260902023110 69 339 0.0 1.0 0.00 0.01 0.01 94 1009.0
20260902022954 70 340 0.0 0.0 0.00 0.01 0.01 94 1008.9
20260902021955 70 339 0.0 1.0 0.00 0.01 0.01 94 1008.7
20260902021507 70 338 1.0 1.0 0.00 0.01 0.01 94 1008.8
20260902021007 70 338 0.0 0.0 0.00 0.01 0.01 93 1008.8
20260902020105 71 306 0.0 0.0 0.00 0.01 0.01 93 1008.9
20260902020014 71 306 0.0 0.0 0.00 0.01 0.01 92 1008.9
20260902015008 72 306 0.0 0.0 0.00 0.01 0.01 92 1008.9
20260902014505 72 306 0.0 0.0 0.00 0.01 0.01 92 1008.8
20260902014023 72 306 0.0 0.0 0.00 0.01 0.01 92 1008.6
20260902013054 72 306 0.0 0.0 0.00 0.01 0.01 91 1008.6
20260902012956 73 306 0.0 0.0 0.00 0.01 0.01 91 1008.6
20260902011602 73 306 0.0 0.0 0.00 0.01 0.01 91 1008.6
20260902010729 74 306 0.0 0.0 0.00 0.01 0.01 90 1008.5
20260902010002 74 306 0.0 0.0 0.00 0.01 0.01 89 1008.5
20260902005709 75 306 0.0 0.0 0.00 0.01 0.01 88 1008.4
20260902004725 76 306 0.0 0.0 0.00 0.01 0.01 85 1008.4
20260902004604 76 306 0.0 1.0 0.00 0.01 0.01 85 1008.4
20260902003005 77 306 0.0 1.0 0.00 0.01 0.01 82 1008.4
20260902002531 78 306 0.0 0.0 0.00 0.01 0.01 81 1008.4
20260902001602 77 316 0.0 1.0 0.00 0.01 0.01 80 1008.7
20260902001531 78 316 0.0 0.0 0.00 0.01 0.01 80 1008.6
20260902000524 78 316 0.0 1.0 0.00 0.01 0.01 79 1008.7
20260902000009 78 316 0.0 1.0 0.00 0.01 0.01 80 1008.8
20260901235457 78 316 0.0 0.0 0.00 0.01 0.01 81 1008.8
20260901234613 78 316 1.0 1.0 0.00 0.01 0.01 81 1008.9
20260901234444 79 316 0.0 0.0 0.00 0.01 0.01 82 1008.9
20260901233455 80 316 0.0 0.0 0.00 0.01 0.01 80 1008.8
20260901233002 79 316 0.0 0.0 0.00 0.01 0.01 78 1008.8
20260901232427 80 316 0.0 0.0 0.00 0.01 0.01 75 1008.7
20260901231606 79 316 0.0 1.0 0.00 0.01 0.01 79 1008.8
20260901231423 80 316 0.0 0.0 0.00 0.01 0.01 77 1008.7
20260901230425 80 316 0.0 0.0 0.00 0.01 0.01 78 1008.7
20260901230003 79 316 0.0 2.0 0.00 0.01 0.01 78 1008.9
20260901225435 80 316 1.0 1.0 0.00 0.01 0.01 78 1008.8
20260901224602 79 316 2.0 2.0 0.00 0.01 0.01 77 1008.8
20260901224457 80 316 0.0 2.0 0.00 0.01 0.01 77 1008.7
20260901223439 80 316 1.0 2.0 0.00 0.01 0.01 76 1008.7